User: anonymous   Login
Location: Unspecified
(0.0000°N, 0.0000°E)
Time: 08:49:40
(UTC+00:00)
Language:

STARLINK-35385 - Orbit

View from above orbital plane
View from above orbital plane
View from above satellite
View from above satellite

Ground track
Ground track

The orbit is defined by the following mean orbital elements,

1 65906U          26145.33816228 +.00000000 +00000-0 +55703-3 0 00003
2 65906  53.1589  14.3138 0002041  75.2632 284.8597 15.34399721    08
Epoch (UTC): 25 May 2026 08:06:57
Eccentricity: 0.0002041
inclination: 53.1589°
perigee height: 461 km
apogee height: 464 km
right ascension of ascending node: 14.3138°
argument of perigee: 75.2632°
revolutions per day: 15.34399721
mean anomaly at epoch: 284.8597°

The dashed part of the orbit path shows where the satellite is in the earth's shadow,  

DLR